Flag for U.S.A. Weather past 2 weeks in Jackson, Mississippi, U.S.A.

Now
79 °F

Passing clouds.


Feels Like: 81 °F
Forecast: 69 / 89 °F
Wind: No wind

Location: Hawkins Field

Current Time: Sep 16, 2014 at 9:15:41 PM

Latest Report: Sep 16, 2014 at 8:53 PM


Visibility: 10 mi

Pressure: 29.98 "Hg

Humidity: 69%

Dew point: 68 °F

Location of JacksonLocation

Historic Weather in Jackson — Graph

°F

Jackson temperature yesterday

Maximum temperature yesterday: 88 °F (at 11:53 AM)
Minimum temperature yesterday: 70 °F (at 4:53 AM)
Average temperature yesterday: 80 °F

Past Weeks' High & Low Weather Summary

 TemperatureHumidityPressure
High94 °F (Sep 9, 3:53 PM)94% (Sep 2, 6:53 AM)30.19 "Hg (Sep 2, 6:53 AM)
Low65 °F (Sep 14, 5:53 AM)44% (Sep 11, 5:53 PM)29.87 "Hg (Sep 10, 6:53 PM)
Average79 °F76%30.02 "Hg
* Reported Sep 1 7:53 PM — Sep 16 7:53 PM, Jackson, Weather by CustomWeather, © 2014

Note: Actual official high and low records may vary slightly from our data, if they occured in-between our weather recording intervals... More about our weather records

Advertising

Jackson weather history for previous 24 hours

 ConditionsComfort  
Time TempWeatherWind HumidityBarometerVisibility
7:53 PM
Sep 16
82 °FScattered clouds.No wind63%29.97 "Hg10 mi
6:53 PM84 °FOvercast.No wind59%29.97 "Hg10 mi
5:53 PM85 °FSunny.No wind53%29.97 "Hg10 mi
4:53 PM88 °FSunny.6 mph46%29.97 "Hg10 mi
3:53 PM87 °FSunny.3 mph50%29.98 "Hg10 mi
2:53 PM88 °FLight rain. Broken clouds.5 mph48%30.00 "Hg10 mi
1:53 PM88 °FSunny.No wind46%30.02 "Hg10 mi
12:53 PM87 °FSunny.5 mph53%30.05 "Hg10 mi
11:53 AM86 °FSunny.5 mph55%30.07 "Hg10 mi
10:53 AM84 °FSunny.5 mph59%30.07 "Hg10 mi
9:53 AM83 °FSunny.8 mph63%30.08 "Hg10 mi
8:53 AM81 °FSunny.6 mph69%30.08 "Hg10 mi
7:53 AM76 °FSunny.No wind82%30.08 "Hg10 mi
6:53 AM75 °FClear.No wind82%30.08 "Hg10 mi
5:53 AM73 °FClear.No wind88%30.06 "Hg10 mi
4:53 AM75 °FClear.No wind82%30.06 "Hg10 mi
3:53 AM74 °FClear.No wind88%30.07 "Hg10 mi
2:53 AM76 °FClear.No wind82%30.07 "Hg10 mi
1:53 AM78 °FClear.No wind76%30.08 "Hg10 mi
12:53 AM79 °FClear.No wind74%30.08 "Hg10 mi
11:53 PM
Sep 15
79 °FClear.3 mph74%30.08 "Hg10 mi
10:53 PM78 °FClear.5 mph79%30.09 "Hg10 mi
9:53 PM79 °FClear.No wind77%30.08 "Hg10 mi
Weather by CustomWeather, © 2014

See weather overviewHow to use our weather pages